Weather History for Chicago Lansing, IL

Change the Weather History Date:

Thursday, July 4, 2013

  Actual Average (KMDW) Record (KMDW)
Temperature  
Mean Temperature 68 °F 76 °F  
Max Temperature 80 °F 84 °F 101 °F (2012)
Min Temperature 56 °F 67 °F 49 °F (1940)
Degree Days  
Heating Degree Days 0 0  
Month to date heating degree days 0  
Since 1 June heating degree days 31  
Since 1 July heating degree days 0  
Cooling Degree Days 3 11  
Month to date cooling degree days 42  
Year to date cooling degree days 326  
Since 1 June cooling degree days 252  
Growing Degree Days 18 (Base 50)    
Moisture  
Dew Point 59 °F    
Average Humidity 73    
Maximum Humidity 97    
Minimum Humidity 50    
Precipitation  
Precipitation 0.00 in 0.11 in 0.94 in (1985)
Month to date precipitation 0.43  
Year to date precipitation 18.98  
Sea Level Pressure  
Sea Level Pressure 30.10 in    
Wind  
Wind Speed 4 mph (South)    
Max Wind Speed 14 mph    
Max Gust Speed 18 mph    
Visibility 7 miles    
Events Fog    
T = Trace of Precipitation, MM = Missing Value Source: NWS Daily Summary

Daily Weather History Graph

Daily Weather History Graph

Search for Another Location

Airport:

Trip Planner

Search our weather history database for the weather conditions in past years. The results will help you decide how hot, cold, wet, or windy it might be!

Date:

Astronomy

Jul. 04, 2013 Rise Set
Actual Time 5:21 AM CDT 8:27 PM CDT
Civil Twilight 4:47 AM CDT 9:00 PM CDT
Nautical Twilight 4:04 AM CDT 9:43 PM CDT
Astronomical Twilight 3:13 AM CDT 10:34 PM CDT
Moon 2:39 AM CDT (7/4) 5:30 PM CDT (7/4)
Length of Visible Light 16h 12m
Length of Day
15h 05m
Waning Crescent, 11% of the Moon is Illuminated
Jul 4
Waning Crescent
Jul 8
New
Jul 15
First Quarter
Jul 22
Full
Jul 29
Last Quarter

Hourly Weather History & Observations

Time (CDT) Temp. Heat Index Dew Point Humidity Pressure Visibility Wind Dir Wind Speed Gust Speed Precip Events Conditions
12:15 AM 59.2 °F - 57.9 °F 96% 30.09 in 1.5 mi Calm Calm - N/A   Mist
12:35 AM 58.6 °F - 57.6 °F 96% 30.09 in 2.0 mi Calm Calm - N/A   Clear
12:55 AM 59.0 °F - 57.7 °F 96% 30.09 in 1.0 mi Calm Calm - N/A   Mist
1:15 AM 58.3 °F - 57.0 °F 96% 30.09 in 0.8 mi SE 3.5 mph - N/A   Mist
1:35 AM 59.2 °F - 58.1 °F 96% 30.09 in 2.5 mi Calm Calm - N/A   Clear
1:55 AM 59.0 °F - 57.9 °F 96% 30.08 in 1.2 mi Calm Calm - N/A   Mist
2:15 AM 58.8 °F - 57.9 °F 97% 30.08 in 1.0 mi Calm Calm - N/A   Mist
2:35 AM 56.5 °F - 55.6 °F 97% 30.08 in 0.2 mi Calm Calm - N/A Fog Fog
2:55 AM 56.5 °F - 55.6 °F 97% 30.09 in 0.2 mi Calm Calm - N/A Fog Fog
3:15 AM 57.4 °F - 56.5 °F 97% 30.08 in 0.2 mi Calm Calm - N/A Fog Fog
3:35 AM 58.5 °F - 57.6 °F 97% 30.09 in 2.0 mi Calm Calm - N/A   Scattered Clouds
3:55 AM 58.5 °F - 57.6 °F 97% 30.09 in 2.0 mi Calm Calm - N/A   Clear
4:15 AM 57.4 °F - 56.5 °F 97% 30.09 in 0.2 mi Calm Calm - N/A Fog Fog
4:35 AM 58.1 °F - 57.2 °F 97% 30.09 in 0.5 mi Calm Calm - N/A Fog Fog
4:55 AM 57.2 °F - 56.3 °F 97% 30.10 in 3.0 mi Calm Calm - N/A   Clear
5:15 AM 56.8 °F - 55.9 °F 97% 30.10 in 3.0 mi Calm Calm - N/A   Clear
5:35 AM 58.1 °F - 57.2 °F 97% 30.11 in 1.8 mi South 3.5 mph - N/A   Mist
5:55 AM 57.7 °F - 56.8 °F 97% 30.11 in 2.0 mi Calm Calm - N/A   Clear
6:15 AM 58.3 °F - 57.4 °F 97% 30.11 in 3.0 mi Calm Calm - N/A   Clear
6:35 AM 59.4 °F - 58.5 °F 97% 30.11 in 4.0 mi Calm Calm - N/A   Clear
6:55 AM 60.8 °F - 59.9 °F 97% 30.11 in 5.0 mi Calm Calm - N/A   Clear
7:15 AM 62.2 °F - 60.3 °F 93% 30.12 in 5.0 mi SSW 3.5 mph - N/A   Clear
7:35 AM 64.2 °F - 60.6 °F 88% 30.12 in 7.0 mi SW 3.5 mph - N/A   Scattered Clouds
7:55 AM 66.2 °F - 60.6 °F 82% 30.12 in 10.0 mi SSW 4.6 mph - N/A   Clear
8:15 AM 68.0 °F - 61.0 °F 78% 30.12 in 10.0 mi South 4.6 mph - N/A   Clear
8:35 AM 69.6 °F - 61.0 °F 74% 30.13 in 10.0 mi South 4.6 mph - N/A   Clear
8:55 AM 71.4 °F - 61.0 °F 70% 30.13 in 10.0 mi South 5.8 mph - N/A   Clear
9:15 AM 72.0 °F - 60.6 °F 67% 30.13 in 10.0 mi SSW 4.6 mph - N/A   Scattered Clouds
9:35 AM 74.5 °F - 59.5 °F 60% 30.12 in 10.0 mi WSW 8.1 mph - N/A   Clear
9:55 AM 74.8 °F - 60.1 °F 60% 30.12 in 10.0 mi SW 6.9 mph - N/A   Clear
10:15 AM 76.3 °F - 59.5 °F 56% 30.12 in 10.0 mi SSW 9.2 mph - N/A   Scattered Clouds
10:35 AM 76.3 °F - 59.7 °F 56% 30.13 in 10.0 mi SSW 9.2 mph - N/A   Scattered Clouds
10:55 AM 75.9 °F - 60.4 °F 59% 30.12 in 10.0 mi South 9.2 mph - N/A   Scattered Clouds
11:15 AM 76.3 °F - 59.9 °F 57% 30.12 in 10.0 mi South 8.1 mph - N/A   Scattered Clouds
11:35 AM 77.0 °F - 60.4 °F 56% 30.12 in 10.0 mi South 8.1 mph - N/A   Clear
11:55 AM 77.9 °F - 59.9 °F 54% 30.11 in 10.0 mi SSW 10.4 mph - N/A   Clear
12:15 PM 77.9 °F - 59.7 °F 53% 30.11 in 10.0 mi SSE 8.1 mph - N/A   Scattered Clouds
12:35 PM 79.0 °F - 59.5 °F 51% 30.11 in 10.0 mi SSE 9.2 mph - N/A   Scattered Clouds
12:55 PM 78.8 °F - 59.4 °F 51% 30.11 in 10.0 mi South 12.7 mph - N/A   Scattered Clouds
1:15 PM 78.3 °F - 60.3 °F 54% 30.11 in 10.0 mi SSW 9.2 mph - N/A   Scattered Clouds
1:35 PM 79.2 °F - 60.4 °F 53% 30.10 in 10.0 mi SSW 12.7 mph 17.3 mph N/A   Scattered Clouds
1:55 PM 78.3 °F - 60.1 °F 53% 30.10 in 10.0 mi SSE 9.2 mph - N/A   Scattered Clouds
2:15 PM 78.3 °F - 60.6 °F 54% 30.10 in 10.0 mi South 10.4 mph 18.4 mph N/A   Mostly Cloudy
2:35 PM 77.7 °F - 60.1 °F 54% 30.10 in 10.0 mi South 13.8 mph - N/A   Mostly Cloudy
2:55 PM 79.0 °F - 61.2 °F 54% 30.10 in 10.0 mi South 11.5 mph - N/A   Mostly Cloudy
3:15 PM 79.0 °F - 61.3 °F 55% 30.09 in 10.0 mi South 11.5 mph - N/A   Scattered Clouds
3:35 PM 79.5 °F - 61.5 °F 54% 30.09 in 10.0 mi South 10.4 mph - N/A   Scattered Clouds
3:55 PM 79.5 °F - 60.6 °F 52% 30.08 in 10.0 mi South 12.7 mph - N/A   Scattered Clouds
4:15 PM 80.2 °F 81.0 °F 60.3 °F 50% 30.08 in 10.0 mi South 10.4 mph - N/A   Clear
4:35 PM 80.6 °F 81.6 °F 61.3 °F 52% 30.08 in 10.0 mi South 10.4 mph - N/A   Scattered Clouds
4:55 PM 79.2 °F - 61.2 °F 54% 30.07 in 10.0 mi South 9.2 mph - N/A   Scattered Clouds
5:15 PM 78.1 °F - 61.2 °F 56% 30.07 in 10.0 mi South 11.5 mph - N/A   Mostly Cloudy
5:35 PM 77.9 °F - 61.0 °F 56% 30.07 in 10.0 mi South 9.2 mph - N/A   Scattered Clouds
5:55 PM 77.2 °F - 60.6 °F 56% 30.07 in 10.0 mi South 9.2 mph 16.1 mph N/A   Clear
6:15 PM 76.8 °F - 60.6 °F 57% 30.07 in 10.0 mi SSE 9.2 mph - N/A   Clear
6:35 PM 76.5 °F - 59.9 °F 56% 30.07 in 10.0 mi SSE 10.4 mph - N/A   Clear
6:55 PM 76.1 °F - 60.4 °F 58% 30.07 in 10.0 mi South 9.2 mph - N/A   Clear
7:15 PM 75.6 °F - 60.3 °F 59% 30.07 in 10.0 mi South 6.9 mph - N/A   Clear
7:35 PM 74.8 °F - 61.0 °F 62% 30.07 in 10.0 mi SSE 5.8 mph - N/A   Clear
7:55 PM 74.3 °F - 61.0 °F 63% 30.07 in 10.0 mi South 6.9 mph - N/A   Clear
8:15 PM 73.4 °F - 60.4 °F 64% 30.07 in 10.0 mi SSE 5.8 mph - N/A   Clear
8:35 PM 72.1 °F - 60.4 °F 67% 30.07 in 10.0 mi SSE 4.6 mph - N/A   Clear
8:55 PM 71.2 °F - 60.3 °F 68% 30.07 in 10.0 mi SSE 4.6 mph - N/A   Clear
9:15 PM 70.7 °F - 60.6 °F 70% 30.08 in 10.0 mi South 4.6 mph - N/A   Clear
9:35 PM 69.8 °F - 60.8 °F 73% 30.08 in 5.0 mi SSE 4.6 mph - N/A   Haze
9:55 PM 68.9 °F - 60.8 °F 75% 30.08 in 4.0 mi SSE 3.5 mph - N/A   Haze
10:15 PM 68.2 °F - 60.8 °F 77% 30.09 in 3.0 mi Calm Calm - N/A   Haze
10:35 PM 67.5 °F - 60.4 °F 78% 30.09 in 3.0 mi SSE 3.5 mph - N/A   Haze
10:55 PM 66.2 °F - 59.9 °F 80% 30.09 in 4.0 mi Calm Calm - N/A   Haze
11:15 PM 66.6 °F - 60.1 °F 80% 30.09 in 4.0 mi Calm Calm - N/A   Haze
11:35 PM 65.1 °F - 59.4 °F 82% 30.09 in 5.0 mi South 4.6 mph - N/A   Haze
11:55 PM 64.6 °F - 59.0 °F 82% 30.08 in 5.0 mi South 4.6 mph - N/A   Haze